Time,TemperatureF,DewpointF,PressureIn,WindDirection,WindDirectionDegrees,WindSpeedMPH,WindSpeedGustMPH,Humidity,HourlyPrecipIn,Conditions,Clouds,dailyrainin,SoftwareType,DateUTC
2013-06-03 00:00:00,61.6,60.4,29.71,ENE,68,0.0,0.0,96,0.00,,,0.00,WeatherCatV1.15B25,2013-06-03 04:00:00,
2013-06-03 00:05:00,61.3,60.2,29.72,ENE,68,0.0,0.0,96,0.00,,,0.00,WeatherCatV1.15B25,2013-06-03 04:05:00,
2013-06-03 00:10:00,61.3,60.2,29.72,ENE,68,0.0,0.0,96,0.00,,,0.00,WeatherCatV1.15B25,2013-06-03 04:10:00,
2013-06-03 00:15:00,61.3,60.2,29.72,ENE,68,0.0,0.0,96,0.00,,,0.00,WeatherCatV1.15B25,2013-06-03 04:15:00,
2013-06-03 00:20:00,61.2,60.0,29.72,ENE,68,0.0,0.0,96,0.00,,,0.00,WeatherCatV1.15B25,2013-06-03 04:20:00,
2013-06-03 00:25:00,61.2,60.0,29.72,ENE,68,0.0,0.0,96,0.00,,,0.00,WeatherCatV1.15B25,2013-06-03 04:25:00,
2013-06-03 00:30:00,61.2,60.0,29.72,ENE,68,0.0,0.0,96,0.00,,,0.00,WeatherCatV1.15B25,2013-06-03 04:30:00,
2013-06-03 00:35:00,61.2,60.0,29.71,ENE,68,0.0,0.0,96,0.00,,,0.00,WeatherCatV1.15B25,2013-06-03 04:35:00,
2013-06-03 00:40:00,61.2,60.0,29.71,ENE,68,0.0,0.0,96,0.00,,,0.00,WeatherCatV1.15B25,2013-06-03 04:40:00,
2013-06-03 00:45:00,61.2,60.0,29.71,ENE,68,0.0,0.0,96,0.00,,,0.00,WeatherCatV1.15B25,2013-06-03 04:45:00,
2013-06-03 00:50:00,61.0,59.8,29.72,ENE,68,0.0,1.0,96,0.00,,,0.00,WeatherCatV1.15B25,2013-06-03 04:50:00,
2013-06-03 00:55:00,61.0,59.8,29.72,ENE,68,0.0,1.0,96,0.00,,,0.00,WeatherCatV1.15B25,2013-06-03 04:55:00,
2013-06-03 01:00:00,61.0,59.8,29.72,ENE,68,0.0,1.0,96,0.00,,,0.00,WeatherCatV1.15B25,2013-06-03 05:00:00,
2013-06-03 01:05:00,60.7,59.6,29.72,ENE,68,0.0,0.0,96,0.00,,,0.00,WeatherCatV1.15B25,2013-06-03 05:05:00,
2013-06-03 01:10:00,60.7,59.6,29.72,ENE,68,0.0,0.0,96,0.00,,,0.00,WeatherCatV1.15B25,2013-06-03 05:10:00,
2013-06-03 01:15:00,60.7,59.6,29.72,ENE,68,0.0,0.0,96,0.00,,,0.00,WeatherCatV1.15B25,2013-06-03 05:15:00,
2013-06-03 01:20:00,60.4,59.3,29.73,ENE,68,0.0,0.0,96,0.00,,,0.00,WeatherCatV1.15B25,2013-06-03 05:20:00,
2013-06-03 01:25:00,60.4,59.3,29.73,ENE,68,0.0,0.0,96,0.00,,,0.00,WeatherCatV1.15B25,2013-06-03 05:25:00,
2013-06-03 01:30:00,60.4,59.3,29.73,ENE,68,0.0,0.0,96,0.00,,,0.00,WeatherCatV1.15B25,2013-06-03 05:30:00,
2013-06-03 01:35:00,59.9,58.7,29.72,ENE,68,0.0,2.0,96,0.00,,,0.00,WeatherCatV1.15B25,2013-06-03 05:35:00,
2013-06-03 01:40:00,59.9,58.7,29.72,ENE,68,0.0,2.0,96,0.00,,,0.00,WeatherCatV1.15B25,2013-06-03 05:40:00,
2013-06-03 01:45:00,59.9,58.7,29.72,ENE,68,0.0,2.0,96,0.00,,,0.00,WeatherCatV1.15B25,2013-06-03 05:45:00,
2013-06-03 01:50:00,59.4,58.3,29.71,ENE,68,0.0,0.0,96,0.00,,,0.00,WeatherCatV1.15B25,2013-06-03 05:50:00,
2013-06-03 01:55:00,59.4,58.3,29.71,ENE,68,0.0,0.0,96,0.00,,,0.00,WeatherCatV1.15B25,2013-06-03 05:55:00,
2013-06-03 02:00:00,59.4,58.3,29.71,ENE,68,0.0,0.0,96,0.00,,,0.00,WeatherCatV1.15B25,2013-06-03 06:00:00,
2013-06-03 02:05:00,59.1,58.0,29.71,ENE,68,0.0,0.0,96,0.00,,,0.00,WeatherCatV1.15B25,2013-06-03 06:05:00,
2013-06-03 02:10:00,59.1,58.0,29.71,ENE,68,0.0,0.0,96,0.00,,,0.00,WeatherCatV1.15B25,2013-06-03 06:10:00,
2013-06-03 02:15:00,59.1,58.0,29.71,ENE,68,0.0,0.0,96,0.00,,,0.00,WeatherCatV1.15B25,2013-06-03 06:15:00,
2013-06-03 02:20:00,59.0,57.9,29.73,ENE,68,0.0,0.0,96,0.00,,,0.00,WeatherCatV1.15B25,2013-06-03 06:20:00,
2013-06-03 02:25:00,59.0,57.9,29.73,ENE,68,0.0,0.0,96,0.00,,,0.00,WeatherCatV1.15B25,2013-06-03 06:25:00,
2013-06-03 02:30:00,59.0,57.9,29.73,ENE,68,0.0,0.0,96,0.00,,,0.00,WeatherCatV1.15B25,2013-06-03 06:30:00,
2013-06-03 02:35:00,59.0,57.9,29.73,ENE,68,0.0,0.0,96,0.00,,,0.00,WeatherCatV1.15B25,2013-06-03 06:35:00,
2013-06-03 02:40:00,59.0,57.9,29.73,ENE,68,0.0,0.0,96,0.00,,,0.00,WeatherCatV1.15B25,2013-06-03 06:40:00,
2013-06-03 02:45:00,59.0,57.9,29.73,ENE,68,0.0,0.0,96,0.00,,,0.00,WeatherCatV1.15B25,2013-06-03 06:45:00,
2013-06-03 02:50:00,59.0,57.9,29.73,ENE,68,0.0,2.0,96,0.00,,,0.00,WeatherCatV1.15B25,2013-06-03 06:50:00,
2013-06-03 02:55:00,59.0,57.9,29.73,ENE,68,0.0,2.0,96,0.00,,,0.00,WeatherCatV1.15B25,2013-06-03 06:55:00,
2013-06-03 03:00:00,59.0,57.9,29.73,ENE,68,0.0,2.0,96,0.00,,,0.00,WeatherCatV1.15B25,2013-06-03 07:00:00,
2013-06-03 03:05:00,59.0,57.9,29.72,ENE,68,0.0,0.0,96,0.00,,,0.00,WeatherCatV1.15B25,2013-06-03 07:05:00,
2013-06-03 03:10:00,59.0,57.9,29.72,ENE,68,0.0,0.0,96,0.00,,,0.00,WeatherCatV1.15B25,2013-06-03 07:10:00,
2013-06-03 03:15:00,59.0,57.9,29.72,ENE,68,0.0,0.0,96,0.00,,,0.00,WeatherCatV1.15B25,2013-06-03 07:15:00,
2013-06-03 03:20:00,59.0,57.9,29.71,ENE,68,0.0,0.0,96,0.00,,,0.00,WeatherCatV1.15B25,2013-06-03 07:20:00,
2013-06-03 03:25:00,59.0,57.9,29.71,ENE,68,0.0,0.0,96,0.00,,,0.00,WeatherCatV1.15B25,2013-06-03 07:25:00,
2013-06-03 03:30:00,59.0,57.9,29.71,ENE,68,0.0,0.0,96,0.00,,,0.00,WeatherCatV1.15B25,2013-06-03 07:30:00,
2013-06-03 03:35:00,58.9,57.8,29.70,ENE,68,0.0,0.0,96,0.00,,,0.00,WeatherCatV1.15B25,2013-06-03 07:35:00,
2013-06-03 03:40:00,58.9,57.8,29.70,ENE,68,0.0,0.0,96,0.00,,,0.00,WeatherCatV1.15B25,2013-06-03 07:40:00,
2013-06-03 03:45:00,58.9,57.8,29.70,ENE,68,0.0,0.0,96,0.00,,,0.00,WeatherCatV1.15B25,2013-06-03 07:45:00,
2013-06-03 03:50:00,59.0,57.9,29.71,ENE,68,0.0,0.0,96,0.00,,,0.00,WeatherCatV1.15B25,2013-06-03 07:50:00,
2013-06-03 03:55:00,59.0,57.9,29.71,ENE,68,0.0,0.0,96,0.00,,,0.00,WeatherCatV1.15B25,2013-06-03 07:55:00,
2013-06-03 04:00:00,59.0,57.9,29.71,ENE,68,0.0,0.0,96,0.00,,,0.00,WeatherCatV1.15B25,2013-06-03 08:00:00,
2013-06-03 04:05:00,58.7,57.8,29.71,ENE,68,0.0,0.0,97,0.00,,,0.00,WeatherCatV1.15B25,2013-06-03 08:05:00,
2013-06-03 04:10:00,58.7,57.8,29.71,ENE,68,0.0,0.0,97,0.00,,,0.00,WeatherCatV1.15B25,2013-06-03 08:10:00,
2013-06-03 04:15:00,58.7,57.8,29.71,ENE,68,0.0,0.0,97,0.00,,,0.00,WeatherCatV1.15B25,2013-06-03 08:15:00,
2013-06-03 04:20:00,58.6,57.5,29.73,ENE,68,0.0,0.0,96,0.00,,,0.00,WeatherCatV1.15B25,2013-06-03 08:20:00,
2013-06-03 04:25:00,58.6,57.5,29.73,ENE,68,0.0,0.0,96,0.00,,,0.00,WeatherCatV1.15B25,2013-06-03 08:25:00,
2013-06-03 04:30:00,58.6,57.5,29.73,ENE,68,0.0,0.0,96,0.00,,,0.00,WeatherCatV1.15B25,2013-06-03 08:30:00,
2013-06-03 04:35:00,58.1,57.3,29.74,ENE,68,0.0,0.0,97,0.00,,,0.00,WeatherCatV1.15B25,2013-06-03 08:35:00,
2013-06-03 04:40:00,58.1,57.3,29.74,ENE,68,0.0,0.0,97,0.00,,,0.00,WeatherCatV1.15B25,2013-06-03 08:40:00,
2013-06-03 04:45:00,58.1,57.3,29.74,ENE,68,0.0,0.0,97,0.00,,,0.00,WeatherCatV1.15B25,2013-06-03 08:45:00,
2013-06-03 04:50:00,57.8,56.7,29.74,ENE,68,0.0,0.0,96,0.00,,,0.00,WeatherCatV1.15B25,2013-06-03 08:50:00,
2013-06-03 04:55:00,57.8,56.7,29.74,ENE,68,0.0,0.0,96,0.00,,,0.00,WeatherCatV1.15B25,2013-06-03 08:55:00,
2013-06-03 05:00:00,57.8,56.7,29.74,ENE,68,0.0,0.0,96,0.00,,,0.00,WeatherCatV1.15B25,2013-06-03 09:00:00,
2013-06-03 05:05:00,57.4,56.6,29.75,ENE,68,0.0,0.0,97,0.00,,,0.00,WeatherCatV1.15B25,2013-06-03 09:05:00,
2013-06-03 05:10:00,57.4,56.6,29.75,ENE,68,0.0,0.0,97,0.00,,,0.00,WeatherCatV1.15B25,2013-06-03 09:10:00,
2013-06-03 05:15:00,57.4,56.6,29.75,ENE,68,0.0,0.0,97,0.00,,,0.00,WeatherCatV1.15B25,2013-06-03 09:15:00,
2013-06-03 05:20:00,57.3,56.2,29.75,ENE,68,0.0,2.0,96,0.00,,,0.00,WeatherCatV1.15B25,2013-06-03 09:20:00,
2013-06-03 05:25:00,57.3,56.2,29.75,ENE,68,0.0,2.0,96,0.00,,,0.00,WeatherCatV1.15B25,2013-06-03 09:25:00,
2013-06-03 05:30:00,57.3,56.2,29.75,ENE,68,0.0,2.0,96,0.00,,,0.00,WeatherCatV1.15B25,2013-06-03 09:30:00,
2013-06-03 05:35:00,57.1,56.0,29.75,ENE,68,0.0,2.0,96,0.00,,,0.00,WeatherCatV1.15B25,2013-06-03 09:35:00,
2013-06-03 05:40:00,57.1,56.0,29.75,ENE,68,0.0,2.0,96,0.00,,,0.00,WeatherCatV1.15B25,2013-06-03 09:40:00,
2013-06-03 05:45:00,57.1,56.0,29.75,ENE,68,0.0,2.0,96,0.00,,,0.00,WeatherCatV1.15B25,2013-06-03 09:45:00,
2013-06-03 05:50:00,57.1,56.2,29.75,ENE,68,0.0,0.0,97,0.00,,,0.00,WeatherCatV1.15B25,2013-06-03 09:50:00,
2013-06-03 05:55:00,57.1,56.2,29.75,ENE,68,0.0,0.0,97,0.00,,,0.00,WeatherCatV1.15B25,2013-06-03 09:55:00,
2013-06-03 06:00:00,57.1,56.2,29.75,ENE,68,0.0,0.0,97,0.00,,,0.00,WeatherCatV1.15B25,2013-06-03 10:00:00,
2013-06-03 06:05:00,57.3,56.5,29.76,ENE,68,0.0,2.0,97,0.00,,,0.00,WeatherCatV1.15B25,2013-06-03 10:05:00,
2013-06-03 06:10:00,57.3,56.5,29.76,ENE,68,0.0,2.0,97,0.00,,,0.00,WeatherCatV1.15B25,2013-06-03 10:10:00,
2013-06-03 06:15:00,57.3,56.5,29.76,ENE,68,0.0,2.0,97,0.00,,,0.00,WeatherCatV1.15B25,2013-06-03 10:15:00,
2013-06-03 06:20:00,57.4,56.6,29.76,ENE,68,0.0,0.0,97,0.00,,,0.00,WeatherCatV1.15B25,2013-06-03 10:20:00,
2013-06-03 06:25:00,57.4,56.6,29.76,ENE,68,0.0,0.0,97,0.00,,,0.00,WeatherCatV1.15B25,2013-06-03 10:25:00,
2013-06-03 06:30:00,57.4,56.6,29.76,ENE,68,0.0,0.0,97,0.00,,,0.00,WeatherCatV1.15B25,2013-06-03 10:30:00,
2013-06-03 06:35:00,57.7,56.9,29.76,ENE,68,0.0,1.0,97,0.00,,,0.00,WeatherCatV1.15B25,2013-06-03 10:35:00,
2013-06-03 06:40:00,57.7,56.9,29.76,ENE,68,0.0,1.0,97,0.00,,,0.00,WeatherCatV1.15B25,2013-06-03 10:40:00,
2013-06-03 06:45:00,57.7,56.9,29.76,ENE,68,0.0,1.0,97,0.00,,,0.00,WeatherCatV1.15B25,2013-06-03 10:45:00,
2013-06-03 06:50:00,58.0,57.1,29.76,ENE,68,0.0,0.0,97,0.00,,,0.00,WeatherCatV1.15B25,2013-06-03 10:50:00,
2013-06-03 06:55:00,58.0,57.1,29.76,ENE,68,0.0,0.0,97,0.00,,,0.00,WeatherCatV1.15B25,2013-06-03 10:55:00,
2013-06-03 07:00:00,58.0,57.1,29.76,ENE,68,0.0,0.0,97,0.00,,,0.00,WeatherCatV1.15B25,2013-06-03 11:00:00,
2013-06-03 07:05:00,58.4,57.5,29.77,ENE,68,0.0,0.0,97,0.00,,,0.00,WeatherCatV1.15B25,2013-06-03 11:05:00,
2013-06-03 07:10:00,58.4,57.5,29.77,ENE,68,0.0,0.0,97,0.00,,,0.00,WeatherCatV1.15B25,2013-06-03 11:10:00,
2013-06-03 07:15:00,58.4,57.5,29.77,ENE,68,0.0,0.0,97,0.00,,,0.00,WeatherCatV1.15B25,2013-06-03 11:15:00,
2013-06-03 07:20:00,58.6,57.8,29.77,ENE,68,0.0,0.0,97,0.00,,,0.00,WeatherCatV1.15B25,2013-06-03 11:20:00,
2013-06-03 07:25:00,58.6,57.8,29.77,ENE,68,0.0,0.0,97,0.00,,,0.00,WeatherCatV1.15B25,2013-06-03 11:25:00,
2013-06-03 07:30:00,58.6,57.8,29.77,ENE,68,0.0,0.0,97,0.00,,,0.00,WeatherCatV1.15B25,2013-06-03 11:30:00,
2013-06-03 07:35:00,59.0,58.2,29.77,ENE,68,0.0,0.0,97,0.00,,,0.00,WeatherCatV1.15B25,2013-06-03 11:35:00,
2013-06-03 07:40:00,59.0,58.2,29.77,ENE,68,0.0,0.0,97,0.00,,,0.00,WeatherCatV1.15B25,2013-06-03 11:40:00,
2013-06-03 07:45:00,59.0,58.2,29.77,ENE,68,0.0,0.0,97,0.00,,,0.00,WeatherCatV1.15B25,2013-06-03 11:45:00,
2013-06-03 07:50:00,59.5,58.6,29.77,ENE,68,0.0,0.0,97,0.00,,,0.00,WeatherCatV1.15B25,2013-06-03 11:50:00,
2013-06-03 07:55:00,59.5,58.6,29.77,ENE,68,0.0,0.0,97,0.00,,,0.00,WeatherCatV1.15B25,2013-06-03 11:55:00,
2013-06-03 08:00:00,59.5,58.6,29.77,ENE,68,0.0,0.0,97,0.00,,,0.00,WeatherCatV1.15B25,2013-06-03 12:00:00,
2013-06-03 08:05:00,60.3,59.5,29.77,ENE,68,0.0,0.0,97,0.00,,,0.00,WeatherCatV1.15B25,2013-06-03 12:05:00,
2013-06-03 08:10:00,60.3,59.5,29.77,ENE,68,0.0,0.0,97,0.00,,,0.00,WeatherCatV1.15B25,2013-06-03 12:10:00,
2013-06-03 08:15:00,60.3,59.5,29.77,ENE,68,0.0,0.0,97,0.00,,,0.00,WeatherCatV1.15B25,2013-06-03 12:15:00,
2013-06-03 08:20:00,60.6,59.7,29.76,ENE,68,0.0,0.0,97,0.00,,,0.00,WeatherCatV1.15B25,2013-06-03 12:20:00,
2013-06-03 08:25:00,60.6,59.7,29.76,ENE,68,0.0,0.0,97,0.00,,,0.00,WeatherCatV1.15B25,2013-06-03 12:25:00,
2013-06-03 08:30:00,60.6,59.7,29.76,ENE,68,0.0,0.0,97,0.00,,,0.00,WeatherCatV1.15B25,2013-06-03 12:30:00,
2013-06-03 08:35:00,60.8,59.9,29.77,ENE,68,0.0,0.0,97,0.00,,,0.00,WeatherCatV1.15B25,2013-06-03 12:35:00,
2013-06-03 08:40:00,60.8,59.9,29.77,ENE,68,0.0,0.0,97,0.00,,,0.00,WeatherCatV1.15B25,2013-06-03 12:40:00,
2013-06-03 08:45:00,60.8,59.9,29.77,ENE,68,0.0,0.0,97,0.00,,,0.00,WeatherCatV1.15B25,2013-06-03 12:45:00,
2013-06-03 08:50:00,61.0,60.1,29.77,ENE,68,0.0,0.0,97,0.00,,,0.00,WeatherCatV1.15B25,2013-06-03 12:50:00,
2013-06-03 08:55:00,61.0,60.1,29.77,ENE,68,0.0,0.0,97,0.00,,,0.00,WeatherCatV1.15B25,2013-06-03 12:55:00,
2013-06-03 09:00:00,61.0,60.1,29.77,ENE,68,0.0,0.0,97,0.00,,,0.00,WeatherCatV1.15B25,2013-06-03 13:00:00,
2013-06-03 09:05:00,61.0,60.1,29.77,ENE,68,0.0,0.0,97,0.00,,,0.00,WeatherCatV1.15B25,2013-06-03 13:05:00,
2013-06-03 09:10:00,61.0,60.1,29.77,ENE,68,0.0,0.0,97,0.00,,,0.00,WeatherCatV1.15B25,2013-06-03 13:10:00,
2013-06-03 09:15:00,61.0,60.1,29.77,ENE,68,0.0,0.0,97,0.00,,,0.00,WeatherCatV1.15B25,2013-06-03 13:15:00,
2013-06-03 09:20:00,61.7,60.8,29.77,ENE,68,0.0,0.0,97,0.00,,,0.00,WeatherCatV1.15B25,2013-06-03 13:20:00,
2013-06-03 09:25:00,61.7,60.8,29.77,ENE,68,0.0,0.0,97,0.00,,,0.00,WeatherCatV1.15B25,2013-06-03 13:25:00,
2013-06-03 09:30:00,61.7,60.8,29.77,ENE,68,0.0,0.0,97,0.00,,,0.00,WeatherCatV1.15B25,2013-06-03 13:30:00,
2013-06-03 09:35:00,62.7,61.8,29.77,ENE,68,0.0,0.0,97,0.00,,,0.00,WeatherCatV1.15B25,2013-06-03 13:35:00,
2013-06-03 09:40:00,62.7,61.8,29.77,ENE,68,0.0,0.0,97,0.00,,,0.00,WeatherCatV1.15B25,2013-06-03 13:40:00,
2013-06-03 09:45:00,62.7,61.8,29.77,ENE,68,0.0,0.0,97,0.00,,,0.00,WeatherCatV1.15B25,2013-06-03 13:45:00,
2013-06-03 09:50:00,63.1,62.2,29.76,ENE,68,0.0,0.0,97,0.00,,,0.00,WeatherCatV1.15B25,2013-06-03 13:50:00,
2013-06-03 09:55:00,63.1,62.2,29.76,ENE,68,0.0,0.0,97,0.00,,,0.00,WeatherCatV1.15B25,2013-06-03 13:55:00,
2013-06-03 10:00:00,63.1,62.2,29.76,ENE,68,0.0,0.0,97,0.00,,,0.00,WeatherCatV1.15B25,2013-06-03 14:00:00,
2013-06-03 10:05:00,65.2,64.3,29.75,ENE,68,0.0,0.0,97,0.00,,,0.00,WeatherCatV1.15B25,2013-06-03 14:05:00,
2013-06-03 10:10:00,65.2,64.3,29.75,ENE,68,0.0,0.0,97,0.00,,,0.00,WeatherCatV1.15B25,2013-06-03 14:10:00,
2013-06-03 10:15:00,65.2,64.3,29.75,ENE,68,0.0,0.0,97,0.00,,,0.00,WeatherCatV1.15B25,2013-06-03 14:15:00,
2013-06-03 10:20:00,66.4,65.2,29.74,ENE,68,0.0,1.0,96,0.00,,,0.00,WeatherCatV1.15B25,2013-06-03 14:20:00,
2013-06-03 10:25:00,66.4,65.2,29.74,ENE,68,0.0,1.0,96,0.00,,,0.00,WeatherCatV1.15B25,2013-06-03 14:25:00,
2013-06-03 10:30:00,66.4,65.2,29.74,ENE,68,0.0,1.0,96,0.00,,,0.00,WeatherCatV1.15B25,2013-06-03 14:30:00,
2013-06-03 10:35:00,68.2,65.5,29.73,ENE,68,0.0,2.0,91,0.00,,,0.00,WeatherCatV1.15B25,2013-06-03 14:35:00,
2013-06-03 10:40:00,68.2,65.5,29.73,ENE,68,0.0,2.0,91,0.00,,,0.00,WeatherCatV1.15B25,2013-06-03 14:40:00,
2013-06-03 10:45:00,68.2,65.5,29.73,ENE,68,0.0,2.0,91,0.00,,,0.00,WeatherCatV1.15B25,2013-06-03 14:45:00,
2013-06-03 10:50:00,68.5,63.8,29.74,ENE,68,0.0,1.0,85,0.00,,,0.00,WeatherCatV1.15B25,2013-06-03 14:50:00,
2013-06-03 10:55:00,68.5,63.8,29.74,ENE,68,0.0,1.0,85,0.00,,,0.00,WeatherCatV1.15B25,2013-06-03 14:55:00,
2013-06-03 11:00:00,68.5,63.8,29.74,ENE,68,0.0,1.0,85,0.00,,,0.00,WeatherCatV1.15B25,2013-06-03 15:00:00,
2013-06-03 11:05:00,69.6,63.5,29.73,ENE,68,0.0,4.0,81,0.00,,,0.00,WeatherCatV1.15B25,2013-06-03 15:05:00,
2013-06-03 11:10:00,69.6,63.5,29.73,ENE,68,0.0,4.0,81,0.00,,,0.00,WeatherCatV1.15B25,2013-06-03 15:10:00,
2013-06-03 11:15:00,69.6,63.5,29.73,ENE,68,0.0,4.0,81,0.00,,,0.00,WeatherCatV1.15B25,2013-06-03 15:15:00,
2013-06-03 11:20:00,70.6,63.0,29.73,NE,45,1.0,4.0,77,0.00,,,0.00,WeatherCatV1.15B25,2013-06-03 15:20:00,
2013-06-03 11:25:00,70.6,63.0,29.73,NE,45,1.0,4.0,77,0.00,,,0.00,WeatherCatV1.15B25,2013-06-03 15:25:00,
2013-06-03 11:30:00,70.6,63.0,29.73,NE,45,1.0,4.0,77,0.00,,,0.00,WeatherCatV1.15B25,2013-06-03 15:30:00,
2013-06-03 11:35:00,71.0,60.7,29.72,NNE,22,1.0,4.0,70,0.00,,,0.00,WeatherCatV1.15B25,2013-06-03 15:35:00,
2013-06-03 11:40:00,71.0,60.7,29.72,NNE,22,1.0,4.0,70,0.00,,,0.00,WeatherCatV1.15B25,2013-06-03 15:40:00,
2013-06-03 11:45:00,71.0,60.7,29.72,NNE,22,1.0,4.0,70,0.00,,,0.00,WeatherCatV1.15B25,2013-06-03 15:45:00,
2013-06-03 11:50:00,71.2,63.2,29.72,NW,315,0.0,4.0,76,0.00,,,0.00,WeatherCatV1.15B25,2013-06-03 15:50:00,
2013-06-03 11:55:00,71.2,63.2,29.72,NW,315,0.0,4.0,76,0.00,,,0.00,WeatherCatV1.15B25,2013-06-03 15:55:00,
2013-06-03 12:00:00,71.2,63.2,29.72,NW,315,0.0,4.0,76,0.00,,,0.00,WeatherCatV1.15B25,2013-06-03 16:00:00,
2013-06-03 12:05:00,72.9,61.3,29.72,North,0,1.0,6.0,67,0.00,,,0.00,WeatherCatV1.15B25,2013-06-03 16:05:00,
2013-06-03 12:10:00,72.9,61.3,29.72,North,0,1.0,6.0,67,0.00,,,0.00,WeatherCatV1.15B25,2013-06-03 16:10:00,
2013-06-03 12:15:00,72.9,61.3,29.72,North,0,1.0,6.0,67,0.00,,,0.00,WeatherCatV1.15B25,2013-06-03 16:15:00,
2013-06-03 12:20:00,75.1,56.8,29.72,NW,315,1.0,5.0,53,0.00,,,0.00,WeatherCatV1.15B25,2013-06-03 16:20:00,
2013-06-03 12:25:00,75.1,56.8,29.72,NW,315,1.0,5.0,53,0.00,,,0.00,WeatherCatV1.15B25,2013-06-03 16:25:00,
2013-06-03 12:30:00,75.1,56.8,29.72,NW,315,1.0,5.0,53,0.00,,,0.00,WeatherCatV1.15B25,2013-06-03 16:30:00,
2013-06-03 12:35:00,76.2,56.2,29.71,SE,135,1.0,7.0,50,0.00,,,0.00,WeatherCatV1.15B25,2013-06-03 16:35:00,
2013-06-03 12:40:00,76.2,56.2,29.71,SE,135,1.0,7.0,50,0.00,,,0.00,WeatherCatV1.15B25,2013-06-03 16:40:00,
2013-06-03 12:45:00,76.2,56.2,29.71,SE,135,1.0,7.0,50,0.00,,,0.00,WeatherCatV1.15B25,2013-06-03 16:45:00,
2013-06-03 12:50:00,75.9,58.5,29.71,WNW,292,2.0,9.0,55,0.00,,,0.00,WeatherCatV1.15B25,2013-06-03 16:50:00,
2013-06-03 12:55:00,75.9,58.5,29.71,WNW,292,2.0,9.0,55,0.00,,,0.00,WeatherCatV1.15B25,2013-06-03 16:55:00,
2013-06-03 13:00:00,75.9,58.5,29.71,WNW,292,2.0,9.0,55,0.00,,,0.00,WeatherCatV1.15B25,2013-06-03 17:00:00,
2013-06-03 13:05:00,77.1,59.7,29.69,WNW,292,1.0,9.0,55,0.00,,,0.00,WeatherCatV1.15B25,2013-06-03 17:05:00,
2013-06-03 13:10:00,77.1,59.7,29.69,WNW,292,1.0,9.0,55,0.00,,,0.00,WeatherCatV1.15B25,2013-06-03 17:10:00,
2013-06-03 13:15:00,77.1,59.7,29.69,WNW,292,1.0,9.0,55,0.00,,,0.00,WeatherCatV1.15B25,2013-06-03 17:15:00,
2013-06-03 13:20:00,78.1,59.6,29.70,West,270,2.0,10.0,53,0.00,,,0.00,WeatherCatV1.15B25,2013-06-03 17:20:00,
2013-06-03 13:25:00,78.1,59.6,29.70,West,270,2.0,10.0,53,0.00,,,0.00,WeatherCatV1.15B25,2013-06-03 17:25:00,
2013-06-03 13:30:00,78.1,59.6,29.70,West,270,2.0,10.0,53,0.00,,,0.00,WeatherCatV1.15B25,2013-06-03 17:30:00,
2013-06-03 13:35:00,77.3,61.4,29.70,East,90,2.0,10.0,58,0.00,,,0.00,WeatherCatV1.15B25,2013-06-03 17:35:00,
2013-06-03 13:40:00,77.3,61.4,29.70,East,90,2.0,10.0,58,0.00,,,0.00,WeatherCatV1.15B25,2013-06-03 17:40:00,
2013-06-03 13:45:00,77.3,61.4,29.70,East,90,2.0,10.0,58,0.00,,,0.00,WeatherCatV1.15B25,2013-06-03 17:45:00,
2013-06-03 13:50:00,77.6,55.2,29.69,WNW,292,2.0,9.0,46,0.00,,,0.00,WeatherCatV1.15B25,2013-06-03 17:50:00,
2013-06-03 13:55:00,77.6,55.2,29.69,WNW,292,2.0,9.0,46,0.00,,,0.00,WeatherCatV1.15B25,2013-06-03 17:55:00,
2013-06-03 14:00:00,77.6,55.2,29.69,WNW,292,2.0,9.0,46,0.00,,,0.00,WeatherCatV1.15B25,2013-06-03 18:00:00,
2013-06-03 14:05:00,79.7,55.8,29.68,ESE,112,1.0,5.0,44,0.00,,,0.00,WeatherCatV1.15B25,2013-06-03 18:05:00,
2013-06-03 14:10:00,79.7,55.8,29.68,ESE,112,1.0,5.0,44,0.00,,,0.00,WeatherCatV1.15B25,2013-06-03 18:10:00,
2013-06-03 14:15:00,79.7,55.8,29.68,ESE,112,1.0,5.0,44,0.00,,,0.00,WeatherCatV1.15B25,2013-06-03 18:15:00,
2013-06-03 14:20:00,79.7,55.2,29.68,NW,315,2.0,9.0,43,0.00,,,0.00,WeatherCatV1.15B25,2013-06-03 18:20:00,
2013-06-03 14:25:00,79.7,55.2,29.68,NW,315,2.0,9.0,43,0.00,,,0.00,WeatherCatV1.15B25,2013-06-03 18:25:00,
2013-06-03 14:30:00,79.7,55.2,29.68,NW,315,2.0,9.0,43,0.00,,,0.00,WeatherCatV1.15B25,2013-06-03 18:30:00,
2013-06-03 14:35:00,78.8,61.8,29.68,SE,135,2.0,9.0,56,0.00,,,0.00,WeatherCatV1.15B25,2013-06-03 18:35:00,
2013-06-03 14:40:00,78.8,61.8,29.68,SE,135,2.0,9.0,56,0.00,,,0.00,WeatherCatV1.15B25,2013-06-03 18:40:00,
2013-06-03 14:45:00,78.8,61.8,29.68,SE,135,2.0,9.0,56,0.00,,,0.00,WeatherCatV1.15B25,2013-06-03 18:45:00,
2013-06-03 14:50:00,78.7,57.9,29.68,SSW,202,2.0,8.0,49,0.00,,,0.00,WeatherCatV1.15B25,2013-06-03 18:50:00,
2013-06-03 14:55:00,78.7,57.9,29.68,SSW,202,2.0,8.0,49,0.00,,,0.00,WeatherCatV1.15B25,2013-06-03 18:55:00,
2013-06-03 15:00:00,78.7,57.9,29.68,SSW,202,2.0,8.0,49,0.00,,,0.00,WeatherCatV1.15B25,2013-06-03 19:00:00,
2013-06-03 15:05:00,80.1,56.2,29.67,WNW,292,1.0,6.0,44,0.00,,,0.00,WeatherCatV1.15B25,2013-06-03 19:05:00,
2013-06-03 15:10:00,80.1,56.2,29.67,WNW,292,1.0,6.0,44,0.00,,,0.00,WeatherCatV1.15B25,2013-06-03 19:10:00,
2013-06-03 15:15:00,80.1,56.2,29.67,WNW,292,1.0,6.0,44,0.00,,,0.00,WeatherCatV1.15B25,2013-06-03 19:15:00,
2013-06-03 15:20:00,79.7,54.6,29.67,North,0,1.0,6.0,42,0.00,,,0.00,WeatherCatV1.15B25,2013-06-03 19:20:00,
2013-06-03 15:25:00,79.7,54.6,29.67,North,0,1.0,6.0,42,0.00,,,0.00,WeatherCatV1.15B25,2013-06-03 19:25:00,
2013-06-03 15:30:00,79.7,54.6,29.67,North,0,1.0,6.0,42,0.00,,,0.00,WeatherCatV1.15B25,2013-06-03 19:30:00,
2013-06-03 15:35:00,78.9,51.8,29.67,SW,225,2.0,13.0,39,0.00,,,0.00,WeatherCatV1.15B25,2013-06-03 19:35:00,
2013-06-03 15:40:00,78.9,51.8,29.67,SW,225,2.0,13.0,39,0.00,,,0.00,WeatherCatV1.15B25,2013-06-03 19:40:00,
2013-06-03 15:45:00,78.9,51.8,29.67,SW,225,2.0,13.0,39,0.00,,,0.00,WeatherCatV1.15B25,2013-06-03 19:45:00,
2013-06-03 15:50:00,79.1,57.7,29.67,West,270,2.0,13.0,48,0.00,,,0.00,WeatherCatV1.15B25,2013-06-03 19:50:00,
2013-06-03 15:55:00,79.1,57.7,29.67,West,270,2.0,13.0,48,0.00,,,0.00,WeatherCatV1.15B25,2013-06-03 19:55:00,
2013-06-03 16:00:00,79.1,57.7,29.67,West,270,2.0,13.0,48,0.00,,,0.00,WeatherCatV1.15B25,2013-06-03 20:00:00,
2013-06-03 16:05:00,77.7,54.6,29.66,NW,311,1.0,3.0,45,0.00,,,0.00,WeatherCatV1.15B25,2013-06-03 20:05:00,
2013-06-03 16:10:00,76.6,56.0,29.66,West,272,1.0,3.0,49,0.00,,,0.00,WeatherCatV1.15B25,2013-06-03 20:10:00,
2013-06-03 16:24:00,75.5,54.4,29.67,WNW,299,1.0,3.0,48,0.00,,,0.00,WeatherCatV1.15B25,2013-06-03 20:24:00,
2013-06-03 16:27:00,73.0,54.8,29.67,ENE,63,0.0,2.0,53,0.00,,,0.01,WeatherCatV1.15B25,2013-06-03 20:27:00,
2013-06-03 16:30:00,72.4,58.2,29.67,ENE,63,0.0,1.0,61,0.00,,,0.01,WeatherCatV1.15B25,2013-06-03 20:30:00,
2013-06-03 16:35:00,71.5,58.7,29.67,ENE,63,0.0,0.0,64,0.00,,,0.01,WeatherCatV1.15B25,2013-06-03 20:35:00,
2013-06-03 16:40:00,71.1,58.7,29.67,ENE,62,0.0,0.0,65,0.00,,,0.01,WeatherCatV1.15B25,2013-06-03 20:40:00,
2013-06-03 16:45:00,70.6,59.5,29.68,ENE,61,0.0,0.0,68,0.00,,,0.01,WeatherCatV1.15B25,2013-06-03 20:45:00,
2013-06-03 16:50:00,70.5,58.6,29.67,ENE,78,0.0,4.0,66,0.00,,,0.01,WeatherCatV1.15B25,2013-06-03 20:50:00,
2013-06-03 16:57:00,71.9,62.0,29.67,NE,40,0.0,2.0,71,0.00,,,0.01,WeatherCatV1.15B25,2013-06-03 20:57:00,
2013-06-03 17:02:00,73.3,59.9,29.67,NE,39,0.0,1.0,63,0.00,,,0.01,WeatherCatV1.15B25,2013-06-03 21:02:00,
2013-06-03 17:07:00,74.3,59.5,29.67,NE,40,1.0,1.0,60,0.00,,,0.01,WeatherCatV1.15B25,2013-06-03 21:07:00,
2013-06-03 17:12:00,74.6,57.3,29.67,East,90,1.0,3.0,55,0.00,,,0.01,WeatherCatV1.15B25,2013-06-03 21:12:00,
2013-06-03 17:17:00,75.0,58.7,29.67,ENE,68,0.0,3.0,57,0.00,,,0.01,WeatherCatV1.15B25,2013-06-03 21:17:00,
2013-06-03 17:22:00,75.1,59.8,29.67,SSE,163,0.0,4.0,59,0.00,,,0.01,WeatherCatV1.15B25,2013-06-03 21:22:00,
2013-06-03 17:27:00,75.0,61.1,29.67,ESE,103,1.0,2.0,62,0.00,,,0.01,WeatherCatV1.15B25,2013-06-03 21:27:00,
2013-06-03 17:32:00,74.8,60.0,29.67,SSW,200,1.0,1.0,60,0.00,,,0.01,WeatherCatV1.15B25,2013-06-03 21:32:00,
2013-06-03 17:37:00,75.1,57.3,29.67,ENE,65,1.0,6.0,54,0.00,,,0.01,WeatherCatV1.15B25,2013-06-03 21:37:00,
2013-06-03 17:42:00,75.2,59.9,29.68,NE,53,0.0,1.0,59,0.00,,,0.01,WeatherCatV1.15B25,2013-06-03 21:42:00,
2013-06-03 17:47:00,75.0,57.7,29.68,NNE,12,0.0,2.0,55,0.00,,,0.01,WeatherCatV1.15B25,2013-06-03 21:47:00,
2013-06-03 17:52:00,74.4,61.0,29.68,ENE,72,0.0,1.0,63,0.00,,,0.01,WeatherCatV1.15B25,2013-06-03 21:52:00,
2013-06-03 17:57:00,73.7,57.0,29.68,ENE,75,0.0,3.0,56,0.00,,,0.01,WeatherCatV1.15B25,2013-06-03 21:57:00,
2013-06-03 18:02:00,73.6,56.4,29.68,ESE,122,0.0,4.0,55,0.00,,,0.01,WeatherCatV1.15B25,2013-06-03 22:02:00,
2013-06-03 18:07:00,73.3,56.6,29.68,NE,44,2.0,5.0,56,0.00,,,0.01,WeatherCatV1.15B25,2013-06-03 22:07:00,
2013-06-03 18:12:00,73.1,58.8,29.68,East,94,1.0,3.0,61,0.00,,,0.01,WeatherCatV1.15B25,2013-06-03 22:12:00,
2013-06-03 18:17:00,72.1,56.5,29.69,ESE,102,0.0,3.0,58,0.00,,,0.01,WeatherCatV1.15B25,2013-06-03 22:17:00,
2013-06-03 18:22:00,71.0,57.3,29.69,ESE,102,0.0,0.0,62,0.00,,,0.01,WeatherCatV1.15B25,2013-06-03 22:22:00,
2013-06-03 18:27:00,69.9,57.2,29.69,ESE,106,0.0,2.0,64,0.00,,,0.01,WeatherCatV1.15B25,2013-06-03 22:27:00,
2013-06-03 18:32:00,69.0,57.6,29.69,East,95,2.0,5.0,67,0.00,,,0.01,WeatherCatV1.15B25,2013-06-03 22:32:00,
2013-06-03 18:37:00,68.3,54.3,29.69,ENE,67,2.0,5.0,61,0.00,,,0.01,WeatherCatV1.15B25,2013-06-03 22:37:00,
2013-06-03 18:42:00,68.1,54.6,29.69,ENE,67,0.0,3.0,62,0.00,,,0.01,WeatherCatV1.15B25,2013-06-03 22:42:00,
2013-06-03 18:47:00,68.1,54.1,29.70,SE,137,1.0,2.0,61,0.00,,,0.01,WeatherCatV1.15B25,2013-06-03 22:47:00,
2013-06-03 18:52:00,68.1,56.3,29.70,NNE,32,0.0,0.0,66,0.00,,,0.01,WeatherCatV1.15B25,2013-06-03 22:52:00,
2013-06-03 18:57:00,67.8,54.7,29.70,East,100,0.0,1.0,63,0.00,,,0.01,WeatherCatV1.15B25,2013-06-03 22:57:00,
2013-06-03 19:02:00,67.5,55.3,29.70,North,350,0.0,1.0,65,0.00,,,0.01,WeatherCatV1.15B25,2013-06-03 23:02:00,
2013-06-03 19:07:00,67.1,55.8,29.70,North,350,0.0,1.0,67,0.00,,,0.01,WeatherCatV1.15B25,2013-06-03 23:07:00,
2013-06-03 19:10:00,66.8,55.5,29.70,NNE,21,0.0,6.0,67,0.00,,,0.00,WeatherCatV1.15B25,2013-06-03 23:10:00,
2013-06-03 19:15:00,66.5,53.9,29.71,NE,40,0.0,4.0,64,0.00,,,0.00,WeatherCatV1.15B25,2013-06-03 23:15:00,
2013-06-03 19:20:00,78.1,55.6,29.66,NE,45,2.0,7.0,46,0.00,,,0.00,WeatherCatV1.15B25,2013-06-03 23:20:00,
2013-06-03 19:25:00,78.1,55.6,29.66,NE,45,2.0,7.0,46,0.00,,,0.00,WeatherCatV1.15B25,2013-06-03 23:25:00,
2013-06-03 19:30:00,78.1,55.6,29.66,NE,45,2.0,7.0,46,0.00,,,0.00,WeatherCatV1.15B25,2013-06-03 23:30:00,
2013-06-03 19:35:00,78.1,55.6,29.66,NE,45,2.0,7.0,46,0.00,,,0.00,WeatherCatV1.15B25,2013-06-03 23:35:00,
2013-06-03 19:40:00,78.1,55.6,29.66,NE,45,2.0,7.0,46,0.00,,,0.00,WeatherCatV1.15B25,2013-06-03 23:40:00,
2013-06-03 19:45:00,78.1,55.6,29.66,NE,45,2.0,7.0,46,0.00,,,0.00,WeatherCatV1.15B25,2013-06-03 23:45:00,
2013-06-03 19:50:00,78.1,55.6,29.66,NE,45,2.0,7.0,46,0.00,,,0.00,WeatherCatV1.15B25,2013-06-03 23:50:00,
2013-06-03 19:55:00,78.1,55.6,29.66,NE,45,2.0,7.0,46,0.00,,,0.00,WeatherCatV1.15B25,2013-06-03 23:55:00,
2013-06-03 20:00:00,78.1,55.6,29.66,NE,45,2.0,7.0,46,0.00,,,0.00,WeatherCatV1.15B25,2013-06-04 00:00:00,
2013-06-03 20:05:00,78.1,55.6,29.66,NE,45,2.0,7.0,46,0.00,,,0.00,WeatherCatV1.15B25,2013-06-04 00:05:00,
2013-06-03 20:10:00,78.1,55.6,29.66,NE,45,2.0,7.0,46,0.00,,,0.00,WeatherCatV1.15B25,2013-06-04 00:10:00,
2013-06-03 20:15:00,78.1,55.6,29.66,NE,45,2.0,7.0,46,0.00,,,0.00,WeatherCatV1.15B25,2013-06-04 00:15:00,
2013-06-03 20:20:00,78.1,55.6,29.66,NE,45,2.0,7.0,46,0.00,,,0.00,WeatherCatV1.15B25,2013-06-04 00:20:00,
2013-06-03 20:25:00,78.1,55.6,29.66,NE,45,2.0,7.0,46,0.00,,,0.00,WeatherCatV1.15B25,2013-06-04 00:25:00,
2013-06-03 20:30:00,78.1,55.6,29.66,NE,45,2.0,7.0,46,0.00,,,0.00,WeatherCatV1.15B25,2013-06-04 00:30:00,
2013-06-03 20:35:00,78.1,55.6,29.66,NE,45,2.0,7.0,46,0.00,,,0.00,WeatherCatV1.15B25,2013-06-04 00:35:00,
2013-06-03 20:40:00,78.1,55.6,29.66,NE,45,2.0,7.0,46,0.00,,,0.00,WeatherCatV1.15B25,2013-06-04 00:40:00,
2013-06-03 20:45:00,78.1,55.6,29.66,NE,45,2.0,7.0,46,0.00,,,0.00,WeatherCatV1.15B25,2013-06-04 00:45:00,
2013-06-03 20:50:00,78.1,55.6,29.66,NE,45,2.0,7.0,46,0.00,,,0.00,WeatherCatV1.15B25,2013-06-04 00:50:00,
2013-06-03 20:55:00,78.1,55.6,29.66,NE,45,2.0,7.0,46,0.00,,,0.00,WeatherCatV1.15B25,2013-06-04 00:55:00,
2013-06-03 21:00:00,78.1,55.6,29.66,NE,45,2.0,7.0,46,0.00,,,0.00,WeatherCatV1.15B25,2013-06-04 01:00:00,
2013-06-03 21:05:00,78.1,55.6,29.66,NE,45,2.0,7.0,46,0.00,,,0.00,WeatherCatV1.15B25,2013-06-04 01:05:00,
2013-06-03 21:10:00,78.1,55.6,29.66,NE,45,2.0,7.0,46,0.00,,,0.00,WeatherCatV1.15B25,2013-06-04 01:10:00,
2013-06-03 21:15:00,78.1,55.6,29.66,NE,45,2.0,7.0,46,0.00,,,0.00,WeatherCatV1.15B25,2013-06-04 01:15:00,
2013-06-03 21:20:00,78.1,55.6,29.66,NE,45,2.0,7.0,46,0.00,,,0.00,WeatherCatV1.15B25,2013-06-04 01:20:00,
2013-06-03 21:25:00,78.1,55.6,29.66,NE,45,2.0,7.0,46,0.00,,,0.00,WeatherCatV1.15B25,2013-06-04 01:25:00,
2013-06-03 21:30:00,78.1,55.6,29.66,NE,45,2.0,7.0,46,0.00,,,0.00,WeatherCatV1.15B25,2013-06-04 01:30:00,
2013-06-03 21:35:00,78.1,55.6,29.66,NE,45,2.0,7.0,46,0.00,,,0.00,WeatherCatV1.15B25,2013-06-04 01:35:00,
2013-06-03 21:40:00,78.1,55.6,29.66,NE,45,2.0,7.0,46,0.00,,,0.00,WeatherCatV1.15B25,2013-06-04 01:40:00,
2013-06-03 21:45:00,78.1,55.6,29.66,NE,45,2.0,7.0,46,0.00,,,0.00,WeatherCatV1.15B25,2013-06-04 01:45:00,
2013-06-03 21:50:00,78.1,55.6,29.66,NE,45,2.0,7.0,46,0.00,,,0.00,WeatherCatV1.15B25,2013-06-04 01:50:00,
2013-06-03 21:55:00,78.1,55.6,29.66,NE,45,2.0,7.0,46,0.00,,,0.00,WeatherCatV1.15B25,2013-06-04 01:55:00,
2013-06-03 22:00:00,78.1,55.6,29.66,NE,45,2.0,7.0,46,0.00,,,0.00,WeatherCatV1.15B25,2013-06-04 02:00:00,
2013-06-03 22:05:00,78.1,55.6,29.66,NE,45,2.0,7.0,46,0.00,,,0.00,WeatherCatV1.15B25,2013-06-04 02:05:00,
2013-06-03 22:10:00,78.1,55.6,29.66,NE,45,2.0,7.0,46,0.00,,,0.00,WeatherCatV1.15B25,2013-06-04 02:10:00,
2013-06-03 22:15:00,78.1,55.6,29.66,NE,45,2.0,7.0,46,0.00,,,0.00,WeatherCatV1.15B25,2013-06-04 02:15:00,
2013-06-03 22:20:00,78.1,55.6,29.66,NE,45,2.0,7.0,46,0.00,,,0.00,WeatherCatV1.15B25,2013-06-04 02:20:00,
2013-06-03 22:25:00,78.1,55.6,29.66,NE,45,2.0,7.0,46,0.00,,,0.00,WeatherCatV1.15B25,2013-06-04 02:25:00,
2013-06-03 22:30:00,78.1,55.6,29.66,NE,45,2.0,7.0,46,0.00,,,0.00,WeatherCatV1.15B25,2013-06-04 02:30:00,
2013-06-03 22:35:00,78.1,55.6,29.66,NE,45,2.0,7.0,46,0.00,,,0.00,WeatherCatV1.15B25,2013-06-04 02:35:00,
2013-06-03 22:40:00,78.1,55.6,29.66,NE,45,2.0,7.0,46,0.00,,,0.00,WeatherCatV1.15B25,2013-06-04 02:40:00,
2013-06-03 22:45:00,78.1,55.6,29.66,NE,45,2.0,7.0,46,0.00,,,0.00,WeatherCatV1.15B25,2013-06-04 02:45:00,
2013-06-03 22:50:00,78.1,55.6,29.66,NE,45,2.0,7.0,46,0.00,,,0.00,WeatherCatV1.15B25,2013-06-04 02:50:00,
2013-06-03 22:55:00,78.1,55.6,29.66,NE,45,2.0,7.0,46,0.00,,,0.00,WeatherCatV1.15B25,2013-06-04 02:55:00,
2013-06-03 23:00:00,78.1,55.6,29.66,NE,45,2.0,7.0,46,0.00,,,0.00,WeatherCatV1.15B25,2013-06-04 03:00:00,
2013-06-03 23:05:00,78.1,55.6,29.66,NE,45,2.0,7.0,46,0.00,,,0.00,WeatherCatV1.15B25,2013-06-04 03:05:00,
2013-06-03 23:10:00,78.1,55.6,29.66,NE,45,2.0,7.0,46,0.00,,,0.00,WeatherCatV1.15B25,2013-06-04 03:10:00,
2013-06-03 23:15:00,78.1,55.6,29.66,NE,45,2.0,7.0,46,0.00,,,0.00,WeatherCatV1.15B25,2013-06-04 03:15:00,
2013-06-03 23:20:00,78.1,55.6,29.66,NE,45,2.0,7.0,46,0.00,,,0.00,WeatherCatV1.15B25,2013-06-04 03:20:00,
2013-06-03 23:25:00,78.1,55.6,29.66,NE,45,2.0,7.0,46,0.00,,,0.00,WeatherCatV1.15B25,2013-06-04 03:25:00,
2013-06-03 23:30:00,78.1,55.6,29.66,NE,45,2.0,7.0,46,0.00,,,0.00,WeatherCatV1.15B25,2013-06-04 03:30:00,
2013-06-03 23:35:00,78.1,55.6,29.66,NE,45,2.0,7.0,46,0.00,,,0.00,WeatherCatV1.15B25,2013-06-04 03:35:00,
2013-06-03 23:40:00,78.1,55.6,29.66,NE,45,2.0,7.0,46,0.00,,,0.00,WeatherCatV1.15B25,2013-06-04 03:40:00,
2013-06-03 23:45:00,78.1,55.6,29.66,NE,45,2.0,7.0,46,0.00,,,0.00,WeatherCatV1.15B25,2013-06-04 03:45:00,
2013-06-03 23:50:00,78.1,55.6,29.66,NE,45,2.0,7.0,46,0.00,,,0.00,WeatherCatV1.15B25,2013-06-04 03:50:00,
2013-06-03 23:55:00,78.1,55.6,29.66,NE,45,2.0,7.0,46,0.00,,,0.00,WeatherCatV1.15B25,2013-06-04 03:55:00,